Regional Weather Roundup
Issued by NWS Northern Indiana

Home | Current Version | Previous Version | Text Only | Print | Product List | Glossary Off
Versions: 1 2 3 4 5 6 7 8 9 10 11 12 13 14 15 16 17 18 19 20 21 22 23 24 25 26 27 28 29 30 31 32 33 34 35 36 37 38 39 40 41 42 43 44 45 46 47 48 49 50

000
ASUS43 KIWX 282200
RWRIWX

KIWX WEATHER ROUNDUP
NATIONAL WEATHER SERVICE NORTHERN INDIANA
500 PM EST SAT FEB 28 2015

NOTE: "FAIR" INDICATES FEW OR NO CLOUDS BELOW 12,000 FEET WITH NO
SIGNIFICANT WEATHER AND/OR OBSTRUCTIONS TO VISIBILITY.

* THESE STATIONS ARE NOT UNDER NWS QUALITY CONTROL. THEY ALSO MAY NOT
  REPORT WEATHER SUCH AS PRECIPITATION OR FOG.

INZ001>027-282300-
NORTHERN INDIANA

CITY           SKY/WX    TMP DP  RH WIND       PRES   REMARKS
GARY*          MOSUNNY   23   0  36 SE8       30.59F WCI  14
SOUTH BEND     SUNNY     20   3  48 SE9       30.59F WCI   9
GOSHEN         SUNNY     20   3  48 SE8       30.58F WCI  10
ANGOLA*        SUNNY     18   1  49 SE8       30.60S WCI   7
FORT WAYNE     PTSUNNY   19   4  51 E10       30.60F WCI   7
PERU/GRISSOM   MOSUNNY   22   8  52 SE10      30.55F WCI  12

$$
INZ028>050-282300-
CENTRAL INDIANA

CITY           SKY/WX    TMP DP  RH WIND       PRES   REMARKS
LAFAYETTE      CLOUDY    24  10  55 E13       30.56F WCI  12
KOKOMO*        PTSUNNY   21   9  58 E12       30.56F WCI   9
MUNCIE*        SUNNY     21   7  54 E13       30.56F WCI   9
INDIANAPOLIS   CLOUDY    24   6  46 E9        30.54S WCI  14

$$
MIZ043>046-050>051-056>058-064>065-071>073-077>080-282300-
SOUTHWEST LOWER MICHIGAN

CITY           SKY/WX    TMP DP  RH WIND       PRES   REMARKS
BATTLE CREEK   SUNNY     20   0  41 S10       30.60F WCI   9
BENTON HARBOR  SUNNY     20   1  43 VRB5      30.59F WCI  13
COLDWATER*     SUNNY     19  -1  42 S5        30.58F WCI  12
HILLSDALE*     MOSUNNY   18   2  48 SE6       30.58S WCI  10
HOLLAND        SUNNY     20   6  55 W5        30.60F WCI  13
GRAND RAPIDS   MOSUNNY   20  -4  34 SW7       30.59F WCI  11
KALAMAZOO      SUNNY     19   1  45 S5        30.60F WCI  12
STURGIS*       SUNNY     19   3  49 SE6       30.58F WCI  11
THREE RIVERS*  FAIR      19   2  47 S5        30.60F WCI  13

$$
OHZ001>008-015>018-024>025-282300-
NORTHWEST OHIO

CITY           SKY/WX    TMP DP  RH WIND       PRES   REMARKS
DEFIANCE       MOSUNNY   19   2  47 E9        30.63F WCI   8
FINDLAY        FAIR      20   0  41 E9        30.61F WCI   9
TOLEDO EXPRESS SUNNY     18   0  45 E5        30.64F WCI  11
TOLEDO METCALF SUNNY     19   1  45 E6        30.66F WCI  11
LIMA           SUNNY     20   4  50 E10       30.59F WCI   9

$$
AND FOR LAKE MICHIGAN COASTAL AND OPEN LAKE BUOY OBSERVATIONS

STATION/POSITION TEMP    WIND        PRES    VSBY  WAVE
                 AIR SEA DIR/SP/G                  HT/PER
                 (F)     (DEG/KT/KT) (MB)    (MI)  (FT/S)
CALUMET HARBOR    22     140/  5/  9 1034.2F
MICHIGAN CITY     20     120/  5/  8   N/A
SAINT JOSEPH      23     160/  3/ 10 1035.6F

$$
&&



USA.gov is the U.S. government's official web portal to all federal, state and local government web resources and services.